Showing default

OPS 7218 (TRANSIT 16), 2807

Orbit data source: Space-Track

OPS 7218 (TRANSIT 16), 2807 is a payload satellite owned by USN NAVAIR (US) in LEO that was launched on Thu, 18 May 1967 UTC via an SCOUT A launch vehicle from the Air Force Western Test Range (AFWTR). Payload-class satellites include a variety of spacecraft equipped with specific instruments for various scientific and technological missions. These include communications satellites like Starlink; space stations such as the ISS; scientific satellites like the Hubble; Earth observation satellites from companies like Planet Labs, Umbra, and HawkEye 360; GPS; miniature CubeSats for education and research; and military/defense satellites.

Loading next visibility...
Identifier
2807, 1967-048A
Orbit
LEO
Country
Flag of USUS
Related business
Manufacturer
APL
Mission
Spacecraft
Bus & Motor
TRANSIT 5, Unknown motor
Mass
~50 kg wet, ~50 kg dry
Launch date (UTC)
1967-05-18 (58 years ago)
Launch vehicle
SCOUT A
Launch site
Air Force Western Test Range (AFWTR)
Object type
Payload
Rocket body
Debris
Shape & HBR
Unknown
Radar Cross Section
Large (>1 m²)

Expand to show TLE details & history
Last TLE update: 6 hours ago

TLE from 6 hours ago
0 OPS 7218 (TRANSIT 16)
1 02807U 67048A   25292.22858304  .00000180  00000-0  26471-3 0  9996
2 02807  89.6800 355.8081 0018191 273.3594 147.3676 13.50705595875401
Epoch: 2025-10-19T05:29Z
TLE epoch observation values (Epoch: 2025-10-19T05:29:09.574Z)
Latitude
60.92605°
Longitude
-113.85744°
Altitude
1,091.565 km
Speed
7.306 km/s
True Right ascension
23h 45m 31s
True Declination
60° 47' 11"
Sunlit
Object was in full shadow at epoch
Visualization orbit readout
Latitude
Unknown
Longitude
Unknown
Altitude
Unknown
Speed
Unknown
Apparent Right ascension
Unknown
Apparent Declination
Unknown
Sunlit
N/A
Visualization observer readout
Local Sidereal Time
06:13:56
Azimuth
Unknown
Elevation
Unknown
Doppler factor
Unknown
Orbital elements
Apogee altitude
1,080.256 km
Perigee altitude
1,053.17 km
Semi-major axis
7,444.85 km
Eccentricity
0.00182
Inclination
89.68°
RAAN
355.8081°
Arg. of periapsis
273.3594°
True anomaly
147.47979°
Mean anomaly
147.3676°
Eccentric anomaly
147.42372°
Mean motion
3.37878 °/min
Orbital period
106.55 mins
BSTAR
0.00026471
Loading maneuver chart data...
Computing Atmospheric mass density...
Loading historical data...
Loading historical data...
Loading historical data...
Loading historical data...
Loading historical data...
Loading historical data...
Loading historical data...

Documentation

Showing up to 5 results
|